Location: M�nchen
(48.1404°N, 11.6043°E)
Time: 09:53:50
(UTC+01:00)

ISS - Pass Details

Date: 13 January 2018
Orbit: 401 x 406 km, 51.6° (Epoch: 17 January)

Event Time Altitude Azimuth Distance (km) Brightness Sun altitude
Exits shadow 05:34:43 37° 124° (SE) 643 -2.4 -23.6°
Drops below altitude 10° 05:36:51 10° 119° (ESE) 1,461 -0.1 -23.3°
Sets 05:38:56 0° 118° (ESE) 2,319 1.2 -22.9°
